| time (UTC) | temp F | wind direction | speed knots | gust knots | rain 1hr in | rain 24hr in | rain mn in | humidity % | barometer mb |
| 20260505002216 | 72 | 262 | 0.0 | 0.0 | 0.00 | 0.00 | 0.00 | 36 | 1014.0 |
| 20260505001213 | 73 | 262 | 0.0 | 0.0 | 0.00 | 0.00 | 0.00 | 35 | 1014.0 |
| 20260505000229 | 74 | 262 | 0.0 | 0.0 | 0.00 | 0.00 | 0.00 | 34 | 1013.9 |
| 20260504235220 | 74 | 262 | 0.0 | 0.0 | 0.00 | 0.00 | 0.00 | 32 | 1013.8 |
| 20260504234217 | 75 | 263 | 0.0 | 0.0 | 0.00 | 0.00 | 0.00 | 32 | 1013.6 |
| 20260504233214 | 75 | 258 | 0.0 | 0.0 | 0.00 | 0.00 | 0.00 | 32 | 1013.5 |
| 20260504232230 | 75 | 269 | 0.0 | 0.0 | 0.00 | 0.00 | 0.00 | 31 | 1013.3 |
| 20260504231218 | 76 | 265 | 0.0 | 1.7 | 0.00 | 0.00 | 0.00 | 31 | 1013.4 |
| 20260504230214 | 76 | 286 | 0.0 | 1.7 | 0.00 | 0.00 | 0.00 | 30 | 1013.3 |
| 20260504225224 | 76 | 311 | 0.9 | 3.5 | 0.00 | 0.00 | 0.00 | 30 | 1013.3 |
| 20260504224221 | 77 | 246 | 0.9 | 2.6 | 0.00 | 0.00 | 0.00 | 29 | 1013.2 |
| 20260504223237 | 77 | 284 | 0.9 | 2.6 | 0.00 | 0.00 | 0.00 | 28 | 1013.3 |
| 20260504222302 | 77 | 360 | 0.9 | 3.5 | 0.00 | 0.00 | 0.00 | 28 | 1013.2 |
| 20260504221228 | 78 | 297 | 0.9 | 3.5 | 0.00 | 0.00 | 0.00 | 27 | 1013.3 |
| 20260504220226 | 78 | 267 | 0.9 | 1.7 | 0.00 | 0.00 | 0.00 | 26 | 1013.4 |
| 20260504215232 | 79 | 242 | 1.7 | 2.6 | 0.00 | 0.00 | 0.00 | 26 | 1013.4 |
| 20260504214228 | 79 | 279 | 0.9 | 2.6 | 0.00 | 0.00 | 0.00 | 27 | 1013.4 |
| 20260504213225 | 79 | 219 | 0.9 | 4.3 | 0.00 | 0.00 | 0.00 | 28 | 1013.4 |
| 20260504212241 | 79 | 304 | 0.9 | 3.5 | 0.00 | 0.00 | 0.00 | 29 | 1013.4 |
| 20260504211236 | 80 | 267 | 0.9 | 2.6 | 0.00 | 0.00 | 0.00 | 29 | 1013.5 |
| 20260504210233 | 80 | 308 | 1.7 | 6.1 | 0.00 | 0.00 | 0.00 | 28 | 1013.5 |
| 20260504205213 | 80 | 355 | 0.9 | 2.6 | 0.00 | 0.00 | 0.00 | 29 | 1013.5 |
| 20260504204238 | 81 | 5 | 0.9 | 1.7 | 0.00 | 0.00 | 0.00 | 30 | 1013.8 |
| 20260504203233 | 80 | 315 | 0.9 | 3.5 | 0.00 | 0.00 | 0.00 | 29 | 1014.0 |
| 20260504202221 | 81 | 236 | 1.7 | 3.5 | 0.00 | 0.00 | 0.00 | 28 | 1014.1 |
| 20260504201217 | 80 | 116 | 0.9 | 3.5 | 0.00 | 0.00 | 0.00 | 29 | 1014.1 |
| 20260504200214 | 80 | 302 | 0.9 | 2.6 | 0.00 | 0.00 | 0.00 | 27 | 1014.3 |
| 20260504195219 | 80 | 306 | 0.9 | 5.2 | 0.00 | 0.00 | 0.00 | 29 | 1014.3 |
| 20260504194217 | 80 | 346 | 0.9 | 4.3 | 0.00 | 0.00 | 0.00 | 26 | 1014.4 |
| 20260504193232 | 80 | 313 | 1.7 | 2.6 | 0.00 | 0.00 | 0.00 | 27 | 1014.4 |
| 20260504192227 | 79 | 284 | 0.9 | 5.2 | 0.00 | 0.00 | 0.00 | 28 | 1014.6 |
| 20260504191224 | 78 | 204 | 0.9 | 3.5 | 0.00 | 0.00 | 0.00 | 29 | 1014.7 |
| 20260504190241 | 79 | 260 | 0.9 | 3.5 | 0.00 | 0.00 | 0.00 | 27 | 1014.9 |
| 20260504185227 | 78 | 38 | 0.9 | 3.5 | 0.00 | 0.00 | 0.00 | 27 | 1015.1 |
| 20260504184223 | 79 | 87 | 0.9 | 3.5 | 0.00 | 0.00 | 0.00 | 26 | 1015.2 |
| 20260504183236 | 78 | 355 | 1.7 | 2.6 | 0.00 | 0.00 | 0.00 | 30 | 1015.2 |
| 20260504182224 | 77 | 138 | 0.9 | 4.3 | 0.00 | 0.00 | 0.00 | 31 | 1015.4 |
| 20260504181240 | 79 | 302 | 0.9 | 1.7 | 0.00 | 0.00 | 0.00 | 32 | 1015.4 |
| 20260504180246 | 78 | 295 | 0.9 | 2.6 | 0.00 | 0.00 | 0.00 | 30 | 1015.5 |
| 20260504175233 | 77 | 300 | 0.9 | 3.5 | 0.00 | 0.00 | 0.00 | 29 | 1015.4 |
| 20260504174229 | 75 | 34 | 0.9 | 3.5 | 0.00 | 0.00 | 0.00 | 30 | 1015.4 |
| 20260504173217 | 76 | 236 | 0.9 | 2.6 | 0.00 | 0.00 | 0.00 | 28 | 1015.8 |
| 20260504172214 | 76 | 313 | 1.7 | 4.3 | 0.00 | 0.00 | 0.00 | 29 | 1015.9 |
| 20260504171251 | 76 | 22 | 2.6 | 4.3 | 0.00 | 0.00 | 0.00 | 29 | 1015.9 |
| 20260504170226 | 75 | 46 | 0.9 | 4.3 | 0.00 | 0.00 | 0.00 | 35 | 1015.9 |
| 20260504160233 | 73 | 173 | 0.0 | 3.5 | 0.00 | 0.00 | 0.00 | 39 | 1017.3 |
| 20260504150236 | 70 | 56 | 0.0 | 1.7 | 0.00 | 0.00 | 0.00 | 46 | 1017.6 |
| 20260504141228 | 62 | 269 | 0.9 | 2.6 | 0.00 | 0.00 | 0.00 | 64 | 1017.5 |
| 20260504140245 | 60 | 355 | 0.9 | 1.7 | 0.00 | 0.00 | 0.00 | 68 | 1017.6 |
| 20260504130236 | 55 | 9 | 1.7 | 3.5 | 0.00 | 0.00 | 0.00 | 75 | 1017.6 |
| 20260504120240 | 47 | 94 | 0.0 | 0.0 | 0.00 | 0.00 | 0.00 | 88 | 1017.0 |
| 20260504110248 | 45 | 62 | 0.0 | 0.0 | 0.00 | 0.00 | 0.00 | 86 | 1017.1 |
| 20260504100228 | 46 | 101 | 0.0 | 0.0 | 0.00 | 0.00 | 0.00 | 84 | 1016.8 |
| 20260504081227 | 50 | 101 | 0.0 | 0.0 | 0.00 | 0.00 | 0.00 | 77 | 1016.4 |
| 20260504080243 | 50 | 101 | 0.0 | 0.0 | 0.00 | 0.00 | 0.00 | 77 | 1016.4 |
| 20260504070247 | 51 | 101 | 0.0 | 0.0 | 0.00 | 0.00 | 0.00 | 72 | 1016.5 |
| 20260504060214 | 53 | 101 | 0.0 | 0.0 | 0.00 | 0.00 | 0.00 | 68 | 1016.7 |
| 20260504050227 | 55 | 101 | 0.0 | 0.0 | 0.00 | 0.00 | 0.00 | 65 | 1016.7 |
| 20260504045237 | 55 | 101 | 0.0 | 0.9 | 0.00 | 0.00 | 0.00 | 64 | 1016.8 |
| 20260504044234 | 55 | 101 | 0.0 | 0.0 | 0.00 | 0.00 | 0.00 | 64 | 1016.8 |
| 20260504043221 | 55 | 101 | 0.0 | 0.0 | 0.00 | 0.00 | 0.00 | 64 | 1016.8 |
| 20260504042217 | 55 | 101 | 0.0 | 0.9 | 0.00 | 0.00 | 0.00 | 63 | 1016.9 |
| 20260504041213 | 55 | 94 | 0.0 | 0.0 | 0.00 | 0.00 | 0.00 | 63 | 1017.0 |
| 20260504040230 | 55 | 94 | 0.0 | 0.0 | 0.00 | 0.00 | 0.00 | 63 | 1017.1 |
| 20260504035219 | 55 | 94 | 0.0 | 0.0 | 0.00 | 0.00 | 0.00 | 62 | 1017.1 |
| 20260504034234 | 55 | 94 | 0.0 | 0.9 | 0.00 | 0.00 | 0.00 | 62 | 1017.0 |
| 20260504033222 | 55 | 101 | 0.0 | 0.0 | 0.00 | 0.00 | 0.00 | 62 | 1017.1 |
| 20260504032234 | 55 | 101 | 0.0 | 0.0 | 0.00 | 0.00 | 0.00 | 62 | 1017.1 |
| 20260504031238 | 55 | 101 | 0.0 | 0.0 | 0.00 | 0.00 | 0.00 | 60 | 1017.2 |
| 20260504030255 | 55 | 101 | 0.0 | 0.0 | 0.00 | 0.00 | 0.00 | 60 | 1017.1 |
| 20260504025224 | 55 | 101 | 0.0 | 0.0 | 0.00 | 0.00 | 0.00 | 59 | 1017.1 |
| 20260504024241 | 56 | 101 | 0.0 | 0.0 | 0.00 | 0.00 | 0.00 | 58 | 1017.1 |
| 20260504023228 | 56 | 101 | 0.0 | 0.0 | 0.00 | 0.00 | 0.00 | 57 | 1016.9 |
| 20260504022218 | 57 | 101 | 0.0 | 0.0 | 0.00 | 0.00 | 0.00 | 56 | 1016.8 |
| 20260504021215 | 57 | 101 | 0.0 | 0.0 | 0.00 | 0.00 | 0.00 | 55 | 1016.7 |
| 20260504020231 | 57 | 101 | 0.0 | 0.0 | 0.00 | 0.00 | 0.00 | 54 | 1016.6 |
| 20260504015221 | 58 | 101 | 0.0 | 0.0 | 0.00 | 0.00 | 0.00 | 53 | 1016.4 |
| 20260504014237 | 58 | 101 | 0.0 | 0.0 | 0.00 | 0.00 | 0.00 | 52 | 1016.3 |
| 20260504013233 | 59 | 101 | 0.0 | 0.0 | 0.00 | 0.00 | 0.00 | 51 | 1016.3 |
| 20260504012229 | 59 | 101 | 0.0 | 0.0 | 0.00 | 0.00 | 0.00 | 49 | 1016.1 |
| 20260504011217 | 60 | 101 | 0.0 | 0.0 | 0.00 | 0.00 | 0.00 | 48 | 1016.0 |
| 20260504010302 | 61 | 101 | 0.0 | 0.0 | 0.00 | 0.00 | 0.00 | 46 | 1016.0 |
| 20260504005230 | 61 | 101 | 0.0 | 0.0 | 0.00 | 0.00 | 0.00 | 46 | 1015.9 |
| 20260504004218 | 62 | 101 | 0.0 | 0.0 | 0.00 | 0.00 | 0.00 | 46 | 1015.8 |
| 20260504003214 | 62 | 101 | 0.0 | 0.0 | 0.00 | 0.00 | 0.00 | 45 | 1015.8 |